Regional Weather Roundup
Issued by NWS Sterling, VA

Home | Current Version | Previous Version | Text Only | Print | Product List | Glossary Off
Versions: 1 2 3 4 5 6 7 8 9 10 11 12 13 14 15 16 17 18 19 20 21 22 23 24 25 26 27 28

000
ASUS41 KLWX 241210
RWRLWX

REGIONAL WEATHER ROUNDUP
NATIONAL WEATHER SERVICE BALTIMORE MD/WASHINGTON DC
800 AM EDT WED AUG 24 2016

Note: "FAIR" indicates few or no clouds below 12,000 feet
with no significant weather and/or obstructions to visibility.
 TC=TEMPERATURE CELSIUS

 * =Non NWS site. Station does not report precipitation (e.g. rain,
    snow, etc.), thunder, or fog.

DCZ001-MDZ009-015-VAZ040>042-051-053>054-241300-
WASHINGTON METRO

CITY           SKY/WX    TMP DP  RH WIND       PRES   REMARKS
WASHINGTON NAT MOSUNNY   71  63  75 S6        30.32R
DULLES         MOSUNNY   69  61  75 S9        30.31S
ANDREWS AFB    MOSUNNY   71  63  76 SW7       30.31R
FT BELVOIR     SUNNY     63  62  96 CALM      30.31S
QUANTICO       MOSUNNY   71  61  70 CALM      30.32S
COLLEGE PARK*  SUNNY     63  61  94 CALM      30.31S
LEESBURG*      MOSUNNY   66  64  94 CALM      30.32S
MANASSAS*      SUNNY     66  64  94 CALM      30.31S
GAITHERSBURG*  SUNNY     68  61  77 CALM      30.36R

$$

MDZ006>007-011-014-241300-
BALTIMORE METRO

CITY           SKY/WX    TMP DP  RH WIND       PRES   REMARKS
BWI AIRPORT    MOSUNNY   68  61  78 CALM      30.31R
MD SCIENCE CTR   N/A     73  60  63 MISG      30.33R
MARTIN STATE   MOSUNNY   66  66 100 CALM      30.32R
ANNAPOLIS      SUNNY     72  63  73 CALM      30.31R
FORT MEADE*    MOSUNNY   61  61 100 CALM      30.34R

$$

MDZ012-015-019>023-241300-
MARYLAND EASTERN SHORE

CITY           SKY/WX    TMP DP  RH WIND       PRES   REMARKS
OCEAN CITY     SUNNY     69  63  81 NW3       30.31S
SALISBURY      SUNNY     64  60  87 CALM      30.32R
BAY BRIDGE AP* SUNNY     73  63  68 W7        30.31S
CAMBRIDGE*     SUNNY     64  61  88 CALM      30.31S
EASTON*        MOSUNNY   68  66  94 CALM      30.35R

$$

MDZ017>025-241300-
SOUTHERN MARYLAND

CITY           SKY/WX    TMP DP  RH WIND       PRES   REMARKS
PATUXENT RIVER MOSUNNY   71  65  81 W5        30.32R
ST INIGOES     SUNNY     72  66  81 W5        30.31R
LEONARDTOWN*   MOSUNNY   70  63  78 W5        30.34R

$$

MDZ003>005-241300-
NORTH CENTRAL MARYLAND

CITY           SKY/WX    TMP DP  RH WIND       PRES   REMARKS
FREDERICK*     SUNNY     64  64 100 CALM      30.34R
HAGERSTOWN APT SUNNY     68  59  73 CALM      30.31R

$$

MDZ501>502-241300-
WESTERN MARYLAND

CITY           SKY/WX    TMP DP  RH WIND       PRES   REMARKS
OAKLAND*       SUNNY     61  59  94 S6        30.36S
CUMBERLAND*    SUNNY     63  63 100 CALM      30.35S

$$

VAZ025>031-241300-
SHENANDOAH VALLEY

CITY           SKY/WX    TMP DP  RH WIND       PRES   REMARKS
WINCHESTER*    SUNNY     66  63  88 SW3       30.30S
FRONT ROYAL*   FAIR      64  63  94 S5        30.30S
LURAY*         FAIR     N/A N/A N/A CALM      30.32S
NEW MARKET*    FAIR     N/A N/A N/A MISG      30.32S
STAUNTON*      SUNNY     60  59  96 CALM      30.36R
WAYNESBORO*    FAIR      64  61  91 CALM      30.35R

$$

WVZ021-048>050-054>055-241300-
EASTERN WEST VIRGINIA PANHANDLE

CITY           SKY/WX    TMP DP  RH WIND       PRES   REMARKS
MARTINSBURG    SUNNY     65  62  90 CALM      30.30R
PETERSBURG*    SUNNY     60  59  98 CALM      30.32S

$$

VAZ036>039-050-241300-
CENTRAL FOOTHILLS

CITY           SKY/WX    TMP DP  RH WIND       PRES   REMARKS
CHARLOTTESVILL MOSUNNY   65  63  93 CALM      30.32S
CULPEPER*      PTSUNNY   66  64  92 CALM      30.32S
ORANGE*          N/A     68  64  88 CALM      30.34R
GORDONSVILLE*  CLOUDY    64  64 100 MISG      30.32R
WARRENTON*     FAIR      65  59  80 CALM      30.31R

$$

VAZ055>057-241300-
NORTH AND CENTRAL PIEDMONT

CITY           SKY/WX    TMP DP  RH WIND       PRES   REMARKS
FREDERICKSBRG* PTSUNNY   66  66 100 CALM      30.32R
STAFFORD*      SUNNY     66  62  85 CALM      30.36S

$$

NCZ024-NYZ072-PAZ021-071-VAZ022-071-241300-
OTHER REGIONAL OBSERVATIONS

CITY           SKY/WX    TMP DP  RH WIND       PRES   REMARKS
NEW YORK CITY  SUNNY     70  59  68 W5        30.32R
PHILADELPHIA   MOSUNNY   71  59  65 W5        30.31R
PITTSBURGH     PTSUNNY   63  58  83 CALM      30.25S
ROANOKE        MOSUNNY   65  63  93 CALM      30.36R
RICHMOND       PTSUNNY   70  60  70 NW3       30.33R
RALEIGH        MOSUNNY   71  62  73 CALM      30.32R

$$

ANZ530>537-241300-
MARINE OBSERVATIONS

STATION/POSITION TIME  TEMP    WIND        PRES
                       AIR SEA DIR/SP/G
                 (UTC) (F)     (DEG/KT/KT) (MB)
THOMAS PT LIGHT  1200   71 81  250/  8/  9 1027.6R
BALT KEY BRIDGE  1148   71     190/  2/  3 1026.2R
COVE POINT       1148   72     290/  7/ 10 1027.1R
LEWISETTA        1148   71 81  300/  5/  6 1026.3R
SOLOMONS ISLAND  1148   73 83  290/  4/  6   N/A
PINEY POINT      1148          300/  7/  8   N/A

$$





USA.gov is the U.S. government's official web portal to all federal, state and local government web resources and services.